Regional Weather Roundup
Issued by NWS

Home | Current Version | Previous Version | Text Only | Print | Product List | Glossary On
Versions: 1 2 3 4 5 6 7 8 9 10 11 12 13 14 15 16 17 18 19 20 21 22 23 24 25 26 27 28 29 30 31 32 33 34 35 36 37 38 39 40 41 42 43 44 45 46 47 48 49 50
000
ASUS44 KJAN 301520
RWRMS

MISSISSIPPI HOURLY WEATHER ROUNDUP
NATIONAL WEATHER SERVICE JACKSON MS
1000 AM CDT SAT JUL 30 2016

NOTE: "FAIR: INDICATES FEW OR NO CLOUDS BELOW 12,000 FEET WITH NO
SIGNIFICANT WEATHER AND/OR OBSTRUCTIONS TO VISIBILITY.

MSZ001>002-007>008-010>013-018>021-025>028-034>036-301600-
NORTHWEST MISSISSIPPI

CITY           SKY/WX    TMP DP  RH WIND       PRES   REMARKS
CLEVELAND      PTSUNNY   80  79  98 W6        30.03R
GREENWOOD      CLOUDY    84  74  71 SW8       30.02S HX  91
GREENVILLE     MOSUNNY   86  76  71 W12       30.02R HX  96
OXFORD         CLOUDY    75  73  94 NW7       30.06R
WINONA         FAIR      84  75  73 SW7       30.04R HX  92
$$

MSZ003>006-009-014>017-022>024-029>033-037>039-301600-
NORTHEAST MISSISSIPPI

CITY           SKY/WX    TMP DP  RH WIND       PRES   REMARKS
ABERDEEN       FAIR      88  70  55 W5        30.04S HX  92
COLUMBUS AFB   SUNNY     87  79  78 SW10      30.02S HX 100
GOLDN TRIANGLE MOSUNNY   86  72  62 W7        30.03S HX  92
TUPELO         CLOUDY    83  75  77 S3        30.03R HX  90
$$

MSZ040-058-301600-
CENTRAL MISSISSIPPI

CITY           SKY/WX    TMP DP  RH WIND       PRES   REMARKS
JACKSON INTL   MOSUNNY   87  75  67 SW9G17    30.05S HX  96
JACKSON HAWKNS SUNNY     86  74  67 W12       30.06S HX  94
MADISON        FAIR      86  73  66 W8        30.05S HX  93
MERIDIAN KEY   SUNNY     89  73  59 W9        30.06R HX  97
MERIDIAN NAS   SUNNY     89  70  53 W12       30.05S HX  94
$$

MSZ059>079-301600-
SOUTH MISSISSIPPI

CITY           SKY/WX    TMP DP  RH WIND       PRES   REMARKS
BROOKHAVEN     FAIR     N/A N/A N/A NW9       30.08S
HATTIESBURG    MOSUNNY   86  76  71 VRB6      30.07S HX  96
MCCOMB         MOSUNNY   84  75  74 NW9       30.07S HX  92
NATCHEZ        MOSUNNY   86  75  70 W8        30.06S HX  95
PINE BELT      SUNNY    N/A N/A N/A W6        30.07S
$$

MSZ080>082-301600-
COASTAL MISSISSIPPI

CITY           SKY/WX    TMP DP  RH WIND       PRES   REMARKS
BAY ST LOUIS   PTSUNNY   86  73  66 VRB5      30.06R HX  93
BILOXI         MOSUNNY   88  77  70 NW9       30.05S HX 101
PASCAGOULA     MOSUNNY   88  78  72 N7        30.05S HX 101
GULFPORT       MOSUNNY   87  76  69 NW8       30.05R HX  97
$$

LAZ007>009-015>016-023>026-301600-
NORTHEAST LOUISIANA

CITY           SKY/WX    TMP DP  RH WIND       PRES   REMARKS
BASTROP        FAIR      87  76  69 W10       30.04S HX  98
TALLULAH/VBURG SUNNY     88  77  69 VRB5      30.04S HX 100
VIDALIA        FAIR      84  77  79 W5        30.08S HX  94
$$



USA.gov is the U.S. government's official web portal to all federal, state and local government web resources and services.